Ardmore, OK

9:05 AM CDT on April 30, 2017 (GMT -0500)
Ardmore Municipal

Weather History for KADM - September, 2013

Change the Weather History Date:

Tuesday, September 10, 2013

  Actual Average Record
Temperature  
Mean Temperature 82 °F -  
Max Temperature 95 °F 86 °F 100 °F (2014)
Min Temperature 70 °F 65 °F 33 °F (2008)
Cooling Degree Days 16    
Growing Degree Days 32 (Base 50)    
Moisture  
Dew Point 64 °F    
Average Humidity 70    
Maximum Humidity 87    
Minimum Humidity 34    
Precipitation  
Precipitation 0.00 in - - ()
Sea Level Pressure  
Sea Level Pressure 30.02 in    
Wind  
Wind Speed 3 mph (SSE)    
Max Wind Speed 12 mph    
Max Gust Speed 20 mph    
Visibility 10 miles    
Events      
Averages and records for this station are not official NWS values.
T = Trace of Precipitation, MM = Missing Value Source: NWS Daily Summary

Daily Weather History Graph

Daily Weather History Graph

Search for Another Location

Airport or City:

Trip Planner

Search our weather history database for the weather conditions in past years. The results will help you decide how hot, cold, wet, or windy it might be!

Date:

Astronomy

Sep. 10, 2013 Rise Set
Actual Time 7:07 AM CDT 7:41 PM CDT
Civil Twilight 6:42 AM CDT 8:06 PM CDT
Nautical Twilight 6:12 AM CDT 8:36 PM CDT
Astronomical Twilight 5:42 AM CDT 9:06 PM CDT
Moon 12:19 PM CDT (9/10) 11:01 PM CDT (9/10)
Length of Visible Light 13h 23m
Length of Day
12h 33m
Waxing Crescent, 28% of the Moon is Illuminated
Sep 10
Waxing Crescent
Sep 12
First Quarter
Sep 19
Full
Sep 26
Last Quarter
Oct 4
New

Hourly Weather History & Observations

Time (CDT) Temp. Heat Index Dew Point Humidity Pressure Visibility Wind Dir Wind Speed Gust Speed Precip Events Conditions
12:15 AM 75.9 °F - 64.0 °F 67% 29.97 in 10.0 mi East 3.5 mph - N/A   Clear
12:35 AM 75.2 °F - 63.7 °F 67% 29.97 in 10.0 mi East 5.8 mph - N/A   Clear
12:55 AM 75.4 °F - 63.7 °F 67% 29.97 in 10.0 mi East 3.5 mph - N/A   Clear
1:15 AM 74.7 °F - 64.0 °F 69% 29.98 in 10.0 mi Calm Calm - N/A   Clear
1:35 AM 73.8 °F - 64.2 °F 72% 29.99 in 10.0 mi Calm Calm - N/A   Clear
1:55 AM 72.9 °F - 63.9 °F 73% 29.99 in 10.0 mi Calm Calm - N/A   Clear
2:15 AM 72.0 °F - 64.2 °F 77% 30.00 in 10.0 mi Calm Calm - N/A   Clear
2:35 AM 76.1 °F - 65.5 °F 70% 30.00 in 10.0 mi SW 4.6 mph - N/A   Clear
2:55 AM 77.9 °F - 65.5 °F 65% 30.01 in 10.0 mi SSW 4.6 mph - N/A   Clear
3:15 AM 77.4 °F - 65.7 °F 67% 30.01 in 10.0 mi South 4.6 mph - N/A   Clear
3:35 AM 76.3 °F - 65.8 °F 70% 30.01 in 10.0 mi Calm Calm - N/A   Clear
3:55 AM 75.6 °F - 66.2 °F 73% 30.02 in 10.0 mi Calm Calm - N/A   Clear
4:15 AM 74.3 °F - 66.2 °F 76% 30.02 in 10.0 mi Calm Calm - N/A   Clear
4:35 AM 71.8 °F - 66.2 °F 83% 30.03 in 10.0 mi SE 3.5 mph - N/A   Clear
4:55 AM 71.6 °F - 66.2 °F 83% 30.03 in 10.0 mi Calm Calm - N/A   Clear
5:15 AM 71.1 °F - 66.2 °F 85% 30.04 in 10.0 mi Calm Calm - N/A   Clear
5:35 AM 70.2 °F - 66.2 °F 87% 30.04 in 10.0 mi Calm Calm - N/A   Clear
5:55 AM 71.2 °F - 66.4 °F 85% 30.05 in 10.0 mi Calm Calm - N/A   Clear
6:15 AM 71.1 °F - 66.2 °F 85% 30.05 in 10.0 mi Calm Calm - N/A   Clear
6:35 AM 70.3 °F - 66.2 °F 87% 30.05 in 10.0 mi Calm Calm - N/A   Clear
2:55 PM 93.2 °F 94.1 °F 62.6 °F 36% 30.06 in 10.0 mi SE 11.5 mph 18.4 mph N/A   Clear
4:55 PM 93.2 °F 93.3 °F 60.8 °F 34% 30.01 in 10.0 mi South 9.2 mph 19.6 mph N/A   Clear
7:55 PM 84.2 °F 84.4 °F 60.8 °F 45% 30.02 in 10.0 mi SE 4.6 mph - N/A   Clear
11:35 PM 71.1 °F - 57.7 °F 63% 30.08 in 10.0 mi Calm Calm - N/A   Clear
11:55 PM 70.2 °F - 58.6 °F 67% 30.08 in 10.0 mi Calm Calm - N/A   Clear